Location: Les Martinières
(47.2667°N, 1.4410°E)
Time: 02:45:45
(UTC+00:00)

Cosmos 1437 Rocket - Pass Details

Date: 15 May 2026
Orbit: 439 x 476 km, 81.2° (Epoch: 8 June)

Event Time Altitude Azimuth Distance (km) Brightness Sun altitude
Exits shadow 21:37:34 - 220° (SW) 1,774 5.2 -17.3°
Reaches altitude 10° 21:37:58 10° 223° (SW) 1,621 5.1 -17.3°
Maximum altitude 21:41:11 32° 288° (WNW) 836 4.2 -17.6°
Drops below altitude 10° 21:44:28 10° 353° (N) 1,651 6.3 -17.9°
Sets 21:46:44 0° 3° (N) 2,539 7.2 -18.1°
